Date String (YYYY-MM-DD hh:mm:ss) UTC,Instrument flags,Ambient pressure (hPa),Sample flow (lpm),Bypass flow (lpm),Sample temperature (°C),Ambient temperature (°C),ASC tube jacket temperature (°C),LED temperature (°C),Box temperature (°C),Sample RH (%),Span deviation,Mass concentration (μg/m³),Mass concentration (μg/m³),Mass concentration (μg/m³)
DateTimeUTC,F1_M11,P_M11,Q1_M11,Q2_M11,T1_M11,T2_M11,T3_M11,T4_M11,T5_M11,U1_M11,ZSPAN_M11,X0_M11,X2_M11,X1_M11
2021-11-06 01:00:00,,0827.2,4.99,0.00,30.2,29.2,00.0,39.1,31.9,07.6,0000.0,0005.31,0001.22,0000.91
2021-11-06 01:01:00,,0827.2,5.01,0.00,30.2,28.4,00.0,39.1,31.8,07.4,0000.0,0005.36,0001.26,0000.92
2021-11-06 01:02:00,,0827.2,4.99,0.00,30.1,26.4,00.0,39.1,31.4,07.4,0000.0,0005.39,0001.28,0000.91
2021-11-06 01:03:00,,0827.1,5.00,0.00,30.0,26.2,00.0,39.1,31.4,07.6,0000.0,0005.43,0001.30,0000.91
2021-11-06 01:04:00,,0827.1,5.01,0.00,29.9,26.6,00.0,39.0,31.4,07.7,0000.0,0005.36,0001.29,0000.91
2021-11-06 01:05:00,,0827.2,4.99,0.00,29.8,27.0,00.0,39.0,31.3,08.0,0000.0,0005.29,0001.26,0000.91
2021-11-06 01:06:00,,0827.2,4.99,0.00,29.8,27.4,00.0,38.9,31.3,08.0,0000.0,0005.20,0001.27,0000.91
2021-11-06 01:07:00,,0827.2,5.01,0.00,29.8,27.6,00.0,38.9,31.3,08.3,0000.0,0004.97,0001.29,0000.90
2021-11-06 01:08:00,,0827.2,4.99,0.00,29.8,27.9,00.0,38.8,31.4,08.2,0000.0,0003.26,0001.29,0000.90
2021-11-06 01:09:00,,0827.2,5.01,0.00,29.8,28.1,00.0,38.8,31.4,07.9,0000.0,0002.20,0001.24,0000.89
2021-11-06 01:10:00,,0827.2,5.00,0.00,29.8,28.2,00.0,38.8,31.4,08.0,0000.0,0002.00,0001.24,0000.90
2021-11-06 01:11:00,,0827.2,5.00,0.00,29.8,28.3,00.0,38.8,31.5,07.9,0000.0,0002.09,0001.28,0000.91
2021-11-06 01:12:00,,0827.2,4.99,0.00,29.8,28.5,00.0,38.8,31.5,07.9,0000.0,0002.10,0001.29,0000.92
2021-11-06 01:13:00,,0827.2,5.01,0.00,29.8,28.5,00.0,38.8,31.5,07.7,0000.0,0002.25,0001.32,0000.91
2021-11-06 01:14:00,,0827.1,4.99,0.00,29.8,28.6,00.0,38.8,31.5,07.6,0000.0,0002.27,0001.33,0000.91
2021-11-06 01:15:00,,0827.2,5.00,0.00,29.8,28.6,00.0,38.8,31.5,07.4,0000.0,0002.22,0001.32,0000.91
2021-11-06 01:16:00,,0827.2,4.99,0.00,29.8,28.7,00.0,38.8,31.5,07.4,0000.0,0002.32,0001.33,0000.91
2021-11-06 01:17:00,,0827.2,5.01,0.00,29.8,28.7,00.0,38.8,31.5,08.0,0000.0,0002.31,0001.32,0000.91
2021-11-06 01:18:00,,0827.2,5.00,0.00,29.8,28.7,00.0,38.8,31.6,08.1,0000.0,0002.29,0001.31,0000.91
2021-11-06 01:19:00,,0827.2,5.00,0.00,29.8,28.8,00.0,38.8,31.6,08.1,0000.0,0002.29,0001.31,0000.91
2021-11-06 01:20:00,,0827.2,5.00,0.00,29.9,28.8,00.0,38.8,31.6,07.9,0000.0,0002.44,0001.37,0000.92
2021-11-06 01:21:00,,0827.2,5.01,0.00,29.9,28.9,00.0,38.8,31.6,07.8,0000.0,0002.56,0001.41,0000.92
2021-11-06 01:22:00,,0827.2,4.99,0.00,29.9,28.9,00.0,38.8,31.6,07.7,0000.0,0002.52,0001.40,0000.92
2021-11-06 01:23:00,,0827.2,5.01,0.00,29.9,28.9,00.0,38.9,31.6,07.7,0000.0,0002.49,0001.39,0000.92
2021-11-06 01:24:00,,0827.3,5.00,0.00,29.9,28.9,00.0,38.9,31.6,07.8,0000.0,0002.37,0001.37,0000.94
2021-11-06 01:25:00,,0827.3,5.01,0.00,29.9,28.9,00.0,38.9,31.6,07.8,0000.0,0002.44,0001.34,0000.94
2021-11-06 01:26:00,,0827.3,4.99,0.00,29.9,29.0,00.0,38.9,31.7,07.8,0000.0,0002.51,0001.34,0000.95
2021-11-06 01:27:00,,0827.3,5.00,0.00,30.0,29.0,00.0,38.9,31.7,07.8,0000.0,0002.55,0001.35,0000.95
2021-11-06 01:28:00,,0827.4,5.01,0.00,30.0,29.0,00.0,38.9,31.7,07.8,0000.0,0002.53,0001.36,0000.95
2021-11-06 01:29:00,,0827.4,5.00,0.00,30.0,29.1,00.0,38.9,31.7,07.9,0000.0,0002.44,0001.34,0000.95
2021-11-06 01:30:00,,0827.4,4.99,0.00,30.0,29.1,00.0,38.9,31.8,08.0,0000.0,0002.42,0001.34,0000.94
2021-11-06 01:31:00,,0827.4,5.01,0.00,30.0,29.1,00.0,39.0,31.8,08.0,0000.0,0002.61,0001.33,0000.95
2021-11-06 01:32:00,,0827.4,5.00,0.00,30.0,29.1,00.0,39.0,31.8,07.9,0000.0,0002.86,0001.31,0000.94
2021-11-06 01:33:00,,0827.4,4.99,0.00,30.1,29.1,00.0,39.0,31.8,07.8,0000.0,0003.13,0001.29,0000.94
2021-11-06 01:34:00,,0827.4,5.01,0.00,30.1,29.1,00.0,39.0,31.8,07.6,0000.0,0003.09,0001.26,0000.93
2021-11-06 01:35:00,,0827.4,5.01,0.00,30.1,29.1,00.0,39.0,31.8,07.7,0000.0,0003.09,0001.22,0000.92
2021-11-06 01:36:00,,0827.4,5.00,0.00,30.1,29.1,00.0,39.0,31.8,07.6,0000.0,0003.23,0001.21,0000.91
2021-11-06 01:37:00,,0827.4,5.00,0.00,30.1,29.1,00.0,39.0,31.8,07.7,0000.0,0003.18,0001.22,0000.91
2021-11-06 01:38:00,,0827.4,4.99,0.00,30.1,29.1,00.0,39.0,31.8,07.7,0000.0,0003.15,0001.25,0000.91
2021-11-06 01:39:00,,0827.4,4.99,0.00,30.1,29.1,00.0,39.1,31.8,07.6,0000.0,0003.11,0001.25,0000.92
2021-11-06 01:40:00,,0827.4,5.00,0.00,30.1,29.1,00.0,39.1,31.8,07.5,0000.0,0003.26,0001.30,0000.93
2021-11-06 01:41:00,,0827.4,5.00,0.00,30.1,29.1,00.0,39.1,31.8,07.5,0000.0,0003.33,0001.31,0000.93
2021-11-06 01:42:00,,0827.4,5.01,0.00,30.1,29.1,00.0,39.1,31.8,07.5,0000.0,0003.31,0001.32,0000.92
2021-11-06 01:43:00,,0827.4,5.01,0.00,30.1,29.1,00.0,39.1,31.8,07.4,0000.0,0003.07,0001.34,0000.92
2021-11-06 01:44:00,,0827.4,4.99,0.00,30.1,29.0,00.0,39.1,31.8,07.4,0000.0,0002.82,0001.35,0000.91
2021-11-06 01:45:00,,0827.5,5.01,0.00,30.1,29.0,00.0,39.1,31.7,07.4,0000.0,0002.93,0001.37,0000.92
2021-11-06 01:46:00,,0827.5,5.00,0.00,30.1,29.0,00.0,39.1,31.8,07.5,0000.0,0002.93,0001.37,0000.92
2021-11-06 01:47:00,,0827.5,4.99,0.00,30.2,29.1,00.0,39.1,31.8,07.4,0000.0,0002.50,0001.35,0000.92
2021-11-06 01:48:00,,0827.5,5.01,0.00,30.2,29.1,00.0,39.1,31.8,07.5,0000.0,0002.63,0001.37,0000.93
2021-11-06 01:49:00,,0827.5,5.01,0.00,30.2,29.1,00.0,39.2,31.9,07.6,0000.0,0003.17,0001.33,0000.93
2021-11-06 01:50:00,,0827.5,5.00,0.00,30.2,29.2,00.0,39.2,31.9,07.6,0000.0,0003.20,0001.34,0000.93
2021-11-06 01:51:00,,0827.6,5.00,0.00,30.2,29.2,00.0,39.2,31.9,07.6,0000.0,0003.15,0001.30,0000.93
2021-11-06 01:52:00,,0827.5,4.99,0.00,30.2,29.2,00.0,39.2,31.9,07.7,0000.0,0003.29,0001.34,0000.94
2021-11-06 01:53:00,,0827.5,5.00,0.00,30.2,29.2,00.0,39.2,32.0,07.7,0000.0,0003.15,0001.33,0000.95
2021-11-06 01:54:00,,0827.6,4.98,0.00,30.2,29.2,00.0,39.2,32.0,07.8,0000.0,0003.07,0001.31,0000.95
2021-11-06 01:55:00,,0827.5,5.02,0.00,30.2,29.3,00.0,39.2,31.9,07.7,0000.0,0003.06,0001.31,0000.95
2021-11-06 01:56:00,,0827.5,4.99,0.00,30.2,29.3,00.0,39.2,31.9,07.8,0000.0,0003.36,0001.32,0000.96
2021-11-06 01:57:00,,0827.5,5.00,0.00,30.2,29.2,00.0,39.2,31.9,08.0,0000.0,0003.98,0001.35,0000.97
2021-11-06 01:58:00,,0827.5,4.99,0.00,30.2,29.2,00.0,39.2,31.9,08.1,0000.0,0004.14,0001.39,0000.97
2021-11-06 01:59:00,,0827.5,4.99,0.00,30.2,29.2,00.0,39.2,31.9,08.0,0000.0,0004.01,0001.38,0000.96
